Content
SEND FEEDBACK

Daily
Averages
Monthly
Summary
United States of America

MOREHOUSE, MISSOURI


Home > North America > United States > Missouri
Elevation: 299 feet     Latitude: 36 51N     Longitude: 089 42W

WEATHER
 
SELECT A DAY
Number of Records: 207,668;   Date Range: 1/1/95 - 7/26/14
 
SHARE

PRINT THIS DATA

[ ← Previous Day ]
WEATHER ALMANAC - JANUARY 6, 2013
[ Next Day → ]
[ °C ]   °F
Weather ElementAverageHighLow
Temperature34.6 °F41 °F (3:53 pm)25 °F (11:53 pm)
Dewpoint27.8 °F34 °F (1:53 am)21.9 °F (10:53 pm)
Humidity77.4 %92 % (2:53 am)55 % (3:53 pm)
Barometer30.27 in30.42 in (10:53 pm)30.15 in (4:53 am)
Wind Speed7.7 mph15 mph (9:53 am)
Wind Gust18.4 mph (9:46 am)
Weather ElementAverage
Visibility9.3 mi
Wind DirectionSW (222.3 °)

Weather ElementTotal
Precipitation---
Heating Degree Days32 (Base 65)
Averaged from 22 records on January 6, 2013
WEATHER CONDITIONS BREAKOUT
WIND DIRECTION BREAKOUT
WEATHER BY HOUR - JANUARY 6, 2013
[ °C ]   °F
Local TimeTemperatureDewpointHumidityBarometerVisibilityWind DirectionWind SpeedGust SpeedPrecipitationEventsConditions
1:53 AM37.0 °F34.0 °F89 %30.19 in9.0 miSW (230°)6.9 mphOvercast
2:53 AM34.0 °F32.0 °F92 %30.18 in8.0 miSW (230°)8.1 mphPartly Cloudy
3:53 AM34.0 °F32.0 °F92 %30.16 in7.0 miSSW (210°)6.9 mphClear
4:53 AM34.0 °F30.9 °F89 %30.15 in10.0 miSW (230°)4.6 mphClear
5:53 AM35.1 °F30.9 °F85 %30.16 in10.0 miSW (230°)10.4 mphClear
6:53 AM34.0 °F30.0 °F85 %30.18 in10.0 miWSW (240°)8.1 mphClear
7:53 AM33.1 °F30.0 °F89 %30.21 in7.0 miWest (260°)9.2 mphClear
8:53 AM35.1 °F32.0 °F89 %30.22 in8.0 miWest (260°)8.1 mphClear
9:46 AM37.4 °F30.2 °F75 %30.24 in10.0 miNW (320°)13.8 mph18.4 mphMostly Cloudy
9:53 AM37.4 °F28.4 °F70 %30.24 in10.0 miNW (320°)15.0 mphMostly Cloudy
10:53 AM37.0 °F27.0 °F67 %30.26 in10.0 miNW (310°)10.4 mphOvercast
11:53 AM36.0 °F27.0 °F70 %30.26 in10.0 miNNW (330°)15.0 mphOvercast
12:10 PM37.4 °F26.6 °F65 %30.26 in10.0 miNNW (330°)12.7 mphScattered Clouds
12:53 PM37.9 °F25.0 °F60 %30.27 in10.0 miNorth (350°)9.2 mph17.3 mphScattered Clouds
1:53 PM39.9 °F26.1 °F58 %30.28 in10.0 miNNW (330°)11.5 mphClear
3:53 PM41.0 °F26.1 °F55 %30.32 in10.0 miNNW (340°)8.1 mphClear
4:53 PM37.0 °F27.0 °F67 %30.35 in10.0 miNorth (10°)5.8 mphClear
6:53 PM33.1 °F25.0 °F72 %30.38 in10.0 miNorth (360°)4.6 mphClear
7:53 PM32.0 °F24.1 °F73 %30.39 in10.0 miCalmClear
9:53 PM27.0 °F23.0 °F85 %30.40 in8.0 miCalmClear
10:53 PM26.1 °F21.9 °F84 %30.42 in9.0 miCalmClear
11:53 PM25.0 °F23.0 °F92 %30.42 in8.0 miCalmClear
Hourly data recorded from KCGI, located miles away from Morehouse, Missouri







STORIES FROM OUR PARTNERS